Time,TemperatureF,DewpointF,PressureIn,WindDirection,WindDirectionDegrees,WindSpeedMPH,WindSpeedGustMPH,Humidity,HourlyPrecipIn,Conditions,Clouds,dailyrainin,SoftwareType,DateUTC
2013-03-27 00:00:00,50.5,38.0,30.23,NW,304,0.0,0.0,62,0.00,,---,0.00,VWS V13.01,2013-03-27 04:00:00,
2013-03-27 00:01:00,50.5,38.0,30.23,North,355,0.0,0.0,62,0.00,,---,0.00,VWS V13.01,2013-03-27 04:01:00,
2013-03-27 00:04:00,50.5,38.0,30.23,North,355,0.0,0.0,62,0.00,,---,0.00,VWS V13.01,2013-03-27 04:04:00,
2013-03-27 00:09:00,50.5,38.0,30.22,North,355,0.0,0.0,62,0.00,,---,0.00,VWS V13.01,2013-03-27 04:09:00,
2013-03-27 00:14:00,50.4,38.3,30.22,North,360,0.0,0.0,63,0.00,,---,0.00,VWS V13.01,2013-03-27 04:14:00,
2013-03-27 00:19:00,50.3,38.6,30.22,North,360,0.0,0.0,64,0.00,,---,0.00,VWS V13.01,2013-03-27 04:19:00,
2013-03-27 00:24:00,50.1,38.4,30.22,North,360,0.0,0.0,64,0.00,,---,0.00,VWS V13.01,2013-03-27 04:24:00,
2013-03-27 00:29:00,50.0,38.3,30.22,North,360,0.0,0.0,64,0.00,,---,0.00,VWS V13.01,2013-03-27 04:29:00,
2013-03-27 00:34:00,49.8,38.1,30.21,NNE,21,0.0,0.0,64,0.00,,---,0.00,VWS V13.01,2013-03-27 04:34:00,
2013-03-27 00:39:00,49.9,38.2,30.21,NNE,26,0.0,0.0,64,0.00,,---,0.00,VWS V13.01,2013-03-27 04:39:00,
2013-03-27 00:44:00,50.1,38.4,30.21,North,360,0.0,0.0,64,0.00,,---,0.00,VWS V13.01,2013-03-27 04:44:00,
2013-03-27 00:49:00,50.4,38.3,30.21,NNE,15,0.0,0.0,63,0.00,,---,0.00,VWS V13.01,2013-03-27 04:49:00,
2013-03-27 00:54:00,50.5,38.0,30.21,North,5,0.0,0.0,62,0.00,,---,0.00,VWS V13.01,2013-03-27 04:54:00,
2013-03-27 01:00:00,50.7,37.8,30.21,NNE,16,0.0,0.0,61,0.00,,---,0.00,VWS V13.01,2013-03-27 05:00:00,
2013-03-27 01:05:00,50.8,37.4,30.21,NNE,17,0.0,0.0,60,0.00,,---,0.00,VWS V13.01,2013-03-27 05:05:00,
2013-03-27 01:10:00,50.9,38.0,30.21,NNE,15,0.0,0.0,61,0.00,,---,0.00,VWS V13.01,2013-03-27 05:10:00,
2013-03-27 01:15:00,50.8,38.3,30.21,NNE,15,0.0,0.0,62,0.00,,---,0.00,VWS V13.01,2013-03-27 05:15:00,
2013-03-27 01:20:00,50.6,37.7,30.21,NNE,15,0.0,0.0,61,0.00,,---,0.00,VWS V13.01,2013-03-27 05:20:00,
2013-03-27 01:25:00,50.3,37.8,30.22,NNE,15,0.0,0.0,62,0.00,,---,0.00,VWS V13.01,2013-03-27 05:25:00,
2013-03-27 01:30:00,50.1,38.0,30.22,NNE,15,0.0,0.0,63,0.00,,---,0.00,VWS V13.01,2013-03-27 05:30:00,
2013-03-27 01:35:00,49.8,38.1,30.22,NNE,15,0.0,0.0,64,0.00,,---,0.00,VWS V13.01,2013-03-27 05:35:00,
2013-03-27 01:40:00,49.4,38.1,30.22,NNE,15,0.0,0.0,65,0.00,,---,0.00,VWS V13.01,2013-03-27 05:40:00,
2013-03-27 01:46:00,49.0,38.2,30.21,NNE,15,0.0,0.0,66,0.00,,---,0.00,VWS V13.01,2013-03-27 05:46:00,
2013-03-27 01:51:00,48.7,37.9,30.21,NNE,15,0.0,0.0,66,0.00,,---,0.00,VWS V13.01,2013-03-27 05:51:00,
2013-03-27 01:56:00,48.4,38.0,30.21,NNE,15,0.0,0.0,67,0.00,,---,0.00,VWS V13.01,2013-03-27 05:56:00,
2013-03-27 02:01:00,48.0,37.6,30.21,NNE,15,0.0,0.0,67,0.00,,---,0.00,VWS V13.01,2013-03-27 06:01:00,
2013-03-27 02:06:00,47.8,37.8,30.21,NNE,15,0.0,0.0,68,0.00,,---,0.00,VWS V13.01,2013-03-27 06:06:00,
2013-03-27 02:12:00,47.6,38.0,30.21,NNE,15,0.0,0.0,69,0.00,,---,0.00,VWS V13.01,2013-03-27 06:12:00,
2013-03-27 02:17:00,47.4,37.8,30.21,NNE,15,0.0,0.0,69,0.00,,---,0.00,VWS V13.01,2013-03-27 06:17:00,
2013-03-27 02:22:00,47.3,38.4,30.21,NNE,24,0.0,0.0,71,0.00,,---,0.00,VWS V13.01,2013-03-27 06:22:00,
2013-03-27 02:27:00,47.5,38.2,30.21,NNE,18,0.0,0.0,70,0.00,,---,0.00,VWS V13.01,2013-03-27 06:27:00,
2013-03-27 02:32:00,47.6,37.6,30.21,NE,49,0.0,0.0,68,0.00,,---,0.00,VWS V13.01,2013-03-27 06:32:00,
2013-03-27 02:37:00,47.7,36.9,30.21,NNW,328,0.0,0.0,66,0.00,,---,0.00,VWS V13.01,2013-03-27 06:37:00,
2013-03-27 02:42:00,47.7,36.5,30.20,NE,53,0.0,0.0,65,0.00,,---,0.00,VWS V13.01,2013-03-27 06:42:00,
2013-03-27 02:47:00,47.7,36.5,30.21,ENE,57,0.0,0.0,65,0.00,,---,0.00,VWS V13.01,2013-03-27 06:47:00,
2013-03-27 02:52:00,47.7,36.1,30.21,NE,47,0.0,0.0,64,0.00,,---,0.00,VWS V13.01,2013-03-27 06:52:00,
2013-03-27 02:57:00,47.6,35.2,30.20,NE,46,0.0,0.0,62,0.00,,---,0.00,VWS V13.01,2013-03-27 06:57:00,
2013-03-27 03:02:00,47.5,35.1,30.20,NE,46,0.0,0.0,62,0.00,,---,0.00,VWS V13.01,2013-03-27 07:02:00,
2013-03-27 03:07:00,47.4,34.6,30.21,NNE,24,0.0,0.0,61,0.00,,---,0.00,VWS V13.01,2013-03-27 07:07:00,
2013-03-27 03:13:00,47.3,34.1,30.20,ENE,61,0.0,0.0,60,0.00,,---,0.00,VWS V13.01,2013-03-27 07:13:00,
2013-03-27 03:18:00,47.2,34.5,30.20,NE,55,0.0,0.0,61,0.00,,---,0.00,VWS V13.01,2013-03-27 07:18:00,
2013-03-27 03:23:00,47.0,34.3,30.20,NE,49,0.0,0.0,61,0.00,,---,0.00,VWS V13.01,2013-03-27 07:23:00,
2013-03-27 03:28:00,46.9,34.2,30.20,NE,49,0.0,0.0,61,0.00,,---,0.00,VWS V13.01,2013-03-27 07:28:00,
2013-03-27 03:33:00,46.8,34.1,30.20,North,5,0.0,0.0,61,0.00,,---,0.00,VWS V13.01,2013-03-27 07:33:00,
2013-03-27 03:38:00,46.6,33.9,30.20,NNE,32,0.0,0.0,61,0.00,,---,0.00,VWS V13.01,2013-03-27 07:38:00,
2013-03-27 03:43:00,46.5,34.2,30.20,ENE,65,0.0,0.0,62,0.00,,---,0.00,VWS V13.01,2013-03-27 07:43:00,
2013-03-27 03:48:00,46.5,33.4,30.20,ENE,63,0.0,0.0,60,0.00,,---,0.00,VWS V13.01,2013-03-27 07:48:00,
2013-03-27 03:53:00,46.5,33.4,30.19,NNE,24,0.0,0.0,60,0.00,,---,0.00,VWS V13.01,2013-03-27 07:53:00,
2013-03-27 03:58:00,46.6,33.0,30.19,NNE,29,0.0,0.0,59,0.00,,---,0.00,VWS V13.01,2013-03-27 07:58:00,
2013-03-27 04:03:00,46.6,33.0,30.20,NE,38,0.0,0.0,59,0.00,,---,0.00,VWS V13.01,2013-03-27 08:03:00,
2013-03-27 04:08:00,46.6,33.0,30.20,NNW,337,0.0,0.0,59,0.00,,---,0.00,VWS V13.01,2013-03-27 08:08:00,
2013-03-27 04:14:00,46.5,33.0,30.20,NNE,15,0.0,0.0,59,0.00,,---,0.00,VWS V13.01,2013-03-27 08:14:00,
2013-03-27 04:19:00,46.5,32.5,30.20,ENE,71,0.0,0.0,58,0.00,,---,0.00,VWS V13.01,2013-03-27 08:19:00,
2013-03-27 04:24:00,46.5,33.0,30.20,ENE,62,0.0,0.0,59,0.00,,---,0.00,VWS V13.01,2013-03-27 08:24:00,
2013-03-27 04:29:00,46.4,32.9,30.20,North,9,0.0,0.0,59,0.00,,---,0.00,VWS V13.01,2013-03-27 08:29:00,
2013-03-27 04:34:00,46.3,32.8,30.20,NNE,21,0.0,0.0,59,0.00,,---,0.00,VWS V13.01,2013-03-27 08:34:00,
2013-03-27 04:39:00,46.2,32.7,30.20,ENE,63,0.0,0.0,59,0.00,,---,0.00,VWS V13.01,2013-03-27 08:39:00,
2013-03-27 04:44:00,46.2,32.2,30.20,ENE,63,0.0,0.0,58,0.00,,---,0.00,VWS V13.01,2013-03-27 08:44:00,
2013-03-27 04:49:00,46.1,32.6,30.20,NE,51,0.0,0.0,59,0.00,,---,0.00,VWS V13.01,2013-03-27 08:49:00,
2013-03-27 04:54:00,46.1,32.6,30.20,NE,40,0.0,0.0,59,0.00,,---,0.00,VWS V13.01,2013-03-27 08:54:00,
2013-03-27 04:59:00,45.9,32.4,30.20,NE,51,0.0,0.0,59,0.00,,---,0.00,VWS V13.01,2013-03-27 08:59:00,
2013-03-27 05:04:00,45.8,32.7,30.21,NE,46,0.0,0.0,60,0.00,,---,0.00,VWS V13.01,2013-03-27 09:04:00,
2013-03-27 05:09:00,45.7,32.6,30.21,NNE,24,0.0,0.0,60,0.00,,---,0.00,VWS V13.01,2013-03-27 09:09:00,
2013-03-27 05:14:00,45.5,33.2,30.20,NNE,27,0.0,0.0,62,0.00,,---,0.00,VWS V13.01,2013-03-27 09:14:00,
2013-03-27 05:19:00,45.5,32.8,30.21,NE,43,0.0,0.0,61,0.00,,---,0.00,VWS V13.01,2013-03-27 09:19:00,
2013-03-27 05:24:00,45.4,33.2,30.21,NE,46,0.0,0.0,62,0.00,,---,0.00,VWS V13.01,2013-03-27 09:24:00,
2013-03-27 05:29:00,45.2,33.0,30.21,NE,39,0.0,0.0,62,0.00,,---,0.00,VWS V13.01,2013-03-27 09:29:00,
2013-03-27 05:34:00,45.1,32.9,30.21,NE,42,0.0,0.0,62,0.00,,---,0.00,VWS V13.01,2013-03-27 09:34:00,
2013-03-27 05:39:00,45.1,32.5,30.21,NE,48,0.0,0.0,61,0.00,,---,0.00,VWS V13.01,2013-03-27 09:39:00,
2013-03-27 05:44:00,45.0,32.4,30.22,NE,34,0.0,0.0,61,0.00,,---,0.00,VWS V13.01,2013-03-27 09:44:00,
2013-03-27 05:50:00,45.0,32.8,30.22,ENE,68,0.0,0.0,62,0.00,,---,0.00,VWS V13.01,2013-03-27 09:50:00,
2013-03-27 05:55:00,44.9,32.7,30.22,ENE,68,0.0,0.0,62,0.00,,---,0.00,VWS V13.01,2013-03-27 09:55:00,
2013-03-27 06:00:00,44.7,32.5,30.22,ENE,68,0.0,0.0,62,0.00,,---,0.00,VWS V13.01,2013-03-27 10:00:00,
2013-03-27 06:05:00,44.5,32.7,30.22,ENE,68,0.0,0.0,63,0.00,,---,0.00,VWS V13.01,2013-03-27 10:05:00,
2013-03-27 06:10:00,44.3,32.5,30.22,ENE,68,0.0,0.0,63,0.00,,---,0.00,VWS V13.01,2013-03-27 10:10:00,
2013-03-27 06:15:00,44.2,32.8,30.22,ENE,65,0.0,0.0,64,0.00,,---,0.00,VWS V13.01,2013-03-27 10:15:00,
2013-03-27 06:20:00,44.2,32.4,30.23,NE,37,0.0,0.0,63,0.00,,---,0.00,VWS V13.01,2013-03-27 10:20:00,
2013-03-27 06:25:00,44.3,32.1,30.22,NNE,28,0.0,0.0,62,0.00,,---,0.00,VWS V13.01,2013-03-27 10:25:00,
2013-03-27 06:30:00,44.4,32.2,30.23,NE,53,0.0,0.0,62,0.00,,---,0.00,VWS V13.01,2013-03-27 10:30:00,
2013-03-27 06:35:00,44.3,32.1,30.23,NE,52,0.0,0.0,62,0.00,,---,0.00,VWS V13.01,2013-03-27 10:35:00,
2013-03-27 06:40:00,44.3,32.1,30.23,ENE,65,0.0,0.0,62,0.00,,---,0.00,VWS V13.01,2013-03-27 10:40:00,
2013-03-27 06:45:00,44.3,32.5,30.23,ENE,59,0.0,0.0,63,0.00,,---,0.00,VWS V13.01,2013-03-27 10:45:00,
2013-03-27 06:50:00,44.3,32.1,30.23,NNE,30,0.0,0.0,62,0.00,,---,0.00,VWS V13.01,2013-03-27 10:50:00,
2013-03-27 06:55:00,44.2,32.0,30.24,NE,52,0.0,0.0,62,0.00,,---,0.00,VWS V13.01,2013-03-27 10:55:00,
2013-03-27 07:00:00,44.2,32.0,30.24,NE,51,0.0,0.0,62,0.00,,---,0.00,VWS V13.01,2013-03-27 11:00:00,
2013-03-27 07:06:00,44.0,32.2,30.24,NW,317,0.0,0.0,63,0.00,,---,0.00,VWS V13.01,2013-03-27 11:06:00,
2013-03-27 07:11:00,43.9,32.1,30.24,NE,40,0.0,0.0,63,0.00,,---,0.00,VWS V13.01,2013-03-27 11:11:00,
2013-03-27 07:16:00,43.8,32.0,30.24,NE,42,0.0,0.0,63,0.00,,---,0.00,VWS V13.01,2013-03-27 11:16:00,
2013-03-27 07:21:00,43.7,32.0,30.24,ENE,58,0.0,0.0,63,0.00,,---,0.00,VWS V13.01,2013-03-27 11:21:00,
2013-03-27 07:26:00,43.6,32.2,30.25,NE,40,0.0,0.0,64,0.00,,---,0.00,VWS V13.01,2013-03-27 11:26:00,
2013-03-27 07:32:00,43.4,32.0,30.25,NE,51,0.0,0.0,64,0.00,,---,0.00,VWS V13.01,2013-03-27 11:32:00,
2013-03-27 07:37:00,43.3,32.0,30.25,NE,42,0.0,0.0,64,0.00,,---,0.00,VWS V13.01,2013-03-27 11:37:00,
2013-03-27 07:42:00,43.3,32.0,30.26,NNE,30,0.0,0.0,64,0.00,,---,0.00,VWS V13.01,2013-03-27 11:42:00,
2013-03-27 07:47:00,43.3,31.6,30.26,North,5,0.0,0.0,63,0.00,,---,0.00,VWS V13.01,2013-03-27 11:47:00,
2013-03-27 07:52:00,43.4,31.7,30.27,North,355,0.0,0.0,63,0.00,,---,0.00,VWS V13.01,2013-03-27 11:52:00,
2013-03-27 07:57:00,43.4,32.0,30.27,NE,53,0.0,0.0,64,0.00,,---,0.00,VWS V13.01,2013-03-27 11:57:00,
2013-03-27 08:02:00,43.5,31.8,30.27,NNE,13,0.0,0.0,63,0.00,,---,0.00,VWS V13.01,2013-03-27 12:02:00,
2013-03-27 08:07:00,43.7,32.0,30.27,NNE,31,0.0,0.0,63,0.00,,---,0.00,VWS V13.01,2013-03-27 12:07:00,
2013-03-27 08:12:00,43.8,32.0,30.27,NE,34,0.0,0.0,63,0.00,,---,0.00,VWS V13.01,2013-03-27 12:12:00,
2013-03-27 08:17:00,44.0,32.2,30.27,ENE,69,0.0,0.0,63,0.00,,---,0.00,VWS V13.01,2013-03-27 12:17:00,
2013-03-27 08:22:00,44.2,32.4,30.28,North,355,0.0,0.0,63,0.00,,---,0.00,VWS V13.01,2013-03-27 12:22:00,
2013-03-27 08:27:00,44.4,32.6,30.28,NNW,340,0.0,0.0,63,0.00,,---,0.00,VWS V13.01,2013-03-27 12:27:00,
2013-03-27 08:33:00,44.6,32.4,30.28,NE,38,0.0,0.0,62,0.00,,---,0.00,VWS V13.01,2013-03-27 12:33:00,
2013-03-27 08:38:00,44.8,33.0,30.28,North,355,0.0,0.0,63,0.00,,---,0.00,VWS V13.01,2013-03-27 12:38:00,
2013-03-27 08:43:00,44.9,32.7,30.29,North,355,0.0,0.0,62,0.00,,---,0.00,VWS V13.01,2013-03-27 12:43:00,
2013-03-27 08:53:00,45.3,32.7,30.30,NE,35,0.0,0.0,61,0.00,,---,0.00,VWS V13.01,2013-03-27 12:53:00,
2013-03-27 08:58:00,45.4,32.3,30.30,NE,36,0.0,0.0,60,0.00,,---,0.00,VWS V13.01,2013-03-27 12:58:00,
2013-03-27 09:03:00,45.7,32.6,30.30,NNE,13,0.0,0.0,60,0.00,,---,0.00,VWS V13.01,2013-03-27 13:03:00,
2013-03-27 09:08:00,45.9,32.4,30.30,NNW,342,0.0,0.0,59,0.00,,---,0.00,VWS V13.01,2013-03-27 13:08:00,
2013-03-27 09:13:00,46.5,32.5,30.30,North,360,0.0,0.0,58,0.00,,---,0.00,VWS V13.01,2013-03-27 13:13:00,
2013-03-27 09:18:00,46.9,32.5,30.30,NNE,22,0.0,0.0,57,0.00,,---,0.00,VWS V13.01,2013-03-27 13:18:00,
2013-03-27 09:23:00,47.5,32.6,30.30,NE,35,0.0,0.0,56,0.00,,---,0.00,VWS V13.01,2013-03-27 13:23:00,
2013-03-27 09:28:00,48.1,32.7,30.30,NNE,13,0.0,0.0,55,0.00,,---,0.00,VWS V13.01,2013-03-27 13:28:00,
2013-03-27 09:33:00,48.4,32.5,30.30,NW,311,0.0,0.0,54,0.00,,---,0.00,VWS V13.01,2013-03-27 13:33:00,
2013-03-27 09:38:00,48.5,32.6,30.31,NNW,333,0.0,0.0,54,0.00,,---,0.00,VWS V13.01,2013-03-27 13:38:00,
2013-03-27 09:44:00,49.0,32.6,30.31,NNE,19,0.0,0.0,53,0.00,,---,0.00,VWS V13.01,2013-03-27 13:44:00,
2013-03-27 09:49:00,49.6,32.7,30.31,NNE,19,0.0,0.0,52,0.00,,---,0.00,VWS V13.01,2013-03-27 13:49:00,
2013-03-27 09:54:00,49.7,32.8,30.31,NE,50,0.0,0.0,52,0.00,,---,0.00,VWS V13.01,2013-03-27 13:54:00,
2013-03-27 09:59:00,50.1,34.6,30.31,ENE,69,0.0,0.0,55,0.00,,---,0.00,VWS V13.01,2013-03-27 13:59:00,
2013-03-27 10:04:00,50.6,33.2,30.31,NE,37,0.0,0.0,51,0.00,,---,0.00,VWS V13.01,2013-03-27 14:04:00,
2013-03-27 10:09:00,51.0,32.0,30.31,NW,313,0.0,0.0,48,0.00,,---,0.00,VWS V13.01,2013-03-27 14:09:00,
2013-03-27 10:14:00,50.8,31.3,30.31,NNW,327,0.0,0.0,47,0.00,,---,0.00,VWS V13.01,2013-03-27 14:14:00,
2013-03-27 10:22:00,50.8,31.8,30.31,North,350,0.0,0.0,48,0.00,,---,0.00,VWS V13.01,2013-03-27 14:22:00,
2013-03-27 10:27:00,51.0,32.5,30.31,NW,312,0.0,0.0,49,0.00,,---,0.00,VWS V13.01,2013-03-27 14:27:00,
2013-03-27 10:32:00,51.4,31.9,30.31,NNW,343,0.0,0.0,47,0.00,,---,0.00,VWS V13.01,2013-03-27 14:32:00,
2013-03-27 10:37:00,51.4,31.9,30.31,NNE,30,0.0,0.0,47,0.00,,---,0.00,VWS V13.01,2013-03-27 14:37:00,
2013-03-27 10:42:00,51.9,32.8,30.31,North,350,0.0,0.0,48,0.00,,---,0.00,VWS V13.01,2013-03-27 14:42:00,
2013-03-27 10:47:00,52.6,33.5,30.31,NE,35,0.0,0.0,48,0.00,,---,0.00,VWS V13.01,2013-03-27 14:47:00,
2013-03-27 10:52:00,53.1,32.9,30.31,North,5,0.0,0.0,46,0.00,,---,0.00,VWS V13.01,2013-03-27 14:52:00,
2013-03-27 10:57:00,52.6,33.5,30.31,NW,306,0.0,0.0,48,0.00,,---,0.00,VWS V13.01,2013-03-27 14:57:00,
2013-03-27 11:02:00,52.7,34.6,30.31,NE,38,0.0,0.0,50,0.00,,---,0.00,VWS V13.01,2013-03-27 15:02:00,
2013-03-27 11:08:00,53.3,36.1,30.32,NNE,16,0.0,0.0,52,0.00,,---,0.00,VWS V13.01,2013-03-27 15:08:00,
2013-03-27 11:13:00,53.0,35.9,30.31,North,360,0.0,0.0,52,0.00,,---,0.00,VWS V13.01,2013-03-27 15:13:00,
2013-03-27 11:18:00,52.6,36.5,30.31,North,355,0.0,0.0,54,0.00,,---,0.00,VWS V13.01,2013-03-27 15:18:00,
2013-03-27 11:23:00,51.9,35.8,30.31,West,276,0.0,0.0,54,0.00,,---,0.00,VWS V13.01,2013-03-27 15:23:00,
2013-03-27 11:28:00,52.6,36.9,30.31,NNE,29,0.0,0.0,55,0.00,,---,0.00,VWS V13.01,2013-03-27 15:28:00,
2013-03-27 11:33:00,52.6,36.0,30.31,NW,318,0.0,0.0,53,0.00,,---,0.00,VWS V13.01,2013-03-27 15:33:00,
2013-03-27 11:38:00,52.4,36.7,30.31,NNW,343,0.0,0.0,55,0.00,,---,0.00,VWS V13.01,2013-03-27 15:38:00,
2013-03-27 11:43:00,52.9,36.2,30.31,NNE,30,0.0,0.0,53,0.00,,---,0.00,VWS V13.01,2013-03-27 15:43:00,
2013-03-27 11:48:00,53.1,36.9,30.32,NNW,346,2.0,13.0,54,0.00,,---,0.00,VWS V13.01,2013-03-27 15:48:00,
2013-03-27 11:53:00,52.6,36.9,30.31,WNW,298,3.0,13.0,55,0.00,,---,0.00,VWS V13.01,2013-03-27 15:53:00,
2013-03-27 11:58:00,52.6,37.8,30.31,North,5,6.0,13.0,57,0.00,,---,0.00,VWS V13.01,2013-03-27 15:58:00,
2013-03-27 12:03:00,53.2,37.9,30.31,South,170,1.0,10.0,56,0.00,,---,0.00,VWS V13.01,2013-03-27 16:03:00,
2013-03-27 12:08:00,53.9,39.0,30.31,NNE,14,4.0,10.0,57,0.00,,---,0.00,VWS V13.01,2013-03-27 16:08:00,
2013-03-27 12:13:00,54.2,38.4,30.31,North,355,0.0,10.0,55,0.00,,---,0.00,VWS V13.01,2013-03-27 16:13:00,
2013-03-27 12:18:00,54.0,39.1,30.31,North,349,1.0,10.0,57,0.00,,---,0.00,VWS V13.01,2013-03-27 16:18:00,
2013-03-27 12:24:00,54.1,38.3,30.31,North,349,0.0,12.0,55,0.00,,---,0.00,VWS V13.01,2013-03-27 16:24:00,
2013-03-27 12:29:00,54.1,38.3,30.31,NW,314,4.0,12.0,55,0.00,,---,0.00,VWS V13.01,2013-03-27 16:29:00,
2013-03-27 12:34:00,53.4,38.6,30.31,North,5,6.0,11.0,57,0.00,,---,0.00,VWS V13.01,2013-03-27 16:34:00,
2013-03-27 12:39:00,53.3,38.0,30.31,ENE,59,4.0,11.0,56,0.00,,---,0.00,VWS V13.01,2013-03-27 16:39:00,
2013-03-27 12:44:00,53.9,39.5,30.31,WSW,245,4.0,11.0,58,0.00,,---,0.00,VWS V13.01,2013-03-27 16:44:00,
2013-03-27 12:49:00,54.2,38.9,30.31,NW,313,2.0,14.0,56,0.00,,---,0.00,VWS V13.01,2013-03-27 16:49:00,
2013-03-27 12:54:00,54.3,39.4,30.31,ENE,59,2.0,14.0,57,0.00,,---,0.00,VWS V13.01,2013-03-27 16:54:00,
2013-03-27 12:59:00,54.6,39.2,30.31,North,5,3.0,14.0,56,0.00,,---,0.00,VWS V13.01,2013-03-27 16:59:00,
2013-03-27 13:04:00,54.9,39.0,30.31,NNE,12,2.0,7.0,55,0.00,,---,0.00,VWS V13.01,2013-03-27 17:04:00,
2013-03-27 13:09:00,54.3,39.4,30.30,NW,324,1.0,9.0,57,0.00,,---,0.00,VWS V13.01,2013-03-27 17:09:00,
2013-03-27 13:14:00,54.1,39.7,30.30,WNW,284,1.0,9.0,58,0.00,,---,0.00,VWS V13.01,2013-03-27 17:14:00,
2013-03-27 13:19:00,54.2,39.3,30.31,NNE,23,4.0,17.0,57,0.00,,---,0.00,VWS V13.01,2013-03-27 17:19:00,
2013-03-27 13:24:00,54.0,39.1,30.30,North,9,3.0,17.0,57,0.00,,---,0.00,VWS V13.01,2013-03-27 17:24:00,
2013-03-27 13:29:00,54.4,40.4,30.30,WNW,302,4.0,17.0,59,0.00,,---,0.00,VWS V13.01,2013-03-27 17:29:00,
2013-03-27 13:34:00,54.2,39.8,30.29,WSW,237,10.0,11.0,58,0.00,,---,0.00,VWS V13.01,2013-03-27 17:34:00,
2013-03-27 13:39:00,54.1,40.1,30.29,North,355,2.0,11.0,59,0.00,,---,0.00,VWS V13.01,2013-03-27 17:39:00,
2013-03-27 13:44:00,54.6,40.1,30.29,NNW,344,5.0,13.0,58,0.00,,---,0.00,VWS V13.01,2013-03-27 17:44:00,
2013-03-27 13:49:00,54.5,39.6,30.28,NNE,15,2.0,13.0,57,0.00,,---,0.00,VWS V13.01,2013-03-27 17:49:00,
2013-03-27 13:54:00,55.0,41.0,30.29,North,355,3.0,13.0,59,0.00,,---,0.00,VWS V13.01,2013-03-27 17:54:00,
2013-03-27 13:59:00,55.2,40.2,30.28,NNW,336,2.0,2.0,57,0.00,,---,0.00,VWS V13.01,2013-03-27 17:59:00,
2013-03-27 14:04:00,55.0,41.0,30.28,NNE,26,2.0,10.0,59,0.00,,---,0.00,VWS V13.01,2013-03-27 18:04:00,
2013-03-27 14:09:00,54.9,40.4,30.28,West,277,5.0,15.0,58,0.00,,---,0.00,VWS V13.01,2013-03-27 18:09:00,
2013-03-27 14:14:00,54.8,40.8,30.28,NNW,333,3.0,17.0,59,0.00,,---,0.00,VWS V13.01,2013-03-27 18:14:00,
2013-03-27 14:20:00,55.1,41.0,30.28,NW,312,2.0,17.0,59,0.00,,---,0.00,VWS V13.01,2013-03-27 18:20:00,
2013-03-27 14:25:00,55.5,40.5,30.27,NW,323,0.0,17.0,57,0.00,,---,0.00,VWS V13.01,2013-03-27 18:25:00,
2013-03-27 14:30:00,55.9,40.5,30.27,NNW,334,5.0,5.0,56,0.00,,---,0.00,VWS V13.01,2013-03-27 18:30:00,
2013-03-27 14:35:00,55.8,39.9,30.27,North,5,3.0,13.0,55,0.00,,---,0.00,VWS V13.01,2013-03-27 18:35:00,
2013-03-27 14:40:00,55.9,40.0,30.27,West,269,0.0,13.0,55,0.00,,---,0.00,VWS V13.01,2013-03-27 18:40:00,
2013-03-27 14:45:00,55.4,40.0,30.27,NNW,347,4.0,13.0,56,0.00,,---,0.00,VWS V13.01,2013-03-27 18:45:00,
2013-03-27 14:50:00,55.5,40.1,30.26,NW,324,5.0,13.0,56,0.00,,---,0.00,VWS V13.01,2013-03-27 18:50:00,
2013-03-27 14:55:00,55.0,41.0,30.26,WNW,292,5.0,14.0,59,0.00,,---,0.00,VWS V13.01,2013-03-27 18:55:00,
2013-03-27 15:00:00,54.8,40.3,30.26,NW,309,5.0,10.0,58,0.00,,---,0.00,VWS V13.01,2013-03-27 19:00:00,
2013-03-27 15:06:00,55.2,39.8,30.25,North,351,2.0,10.0,56,0.00,,---,0.00,VWS V13.01,2013-03-27 19:06:00,
2013-03-27 15:11:00,55.3,40.3,30.25,North,355,6.0,10.0,57,0.00,,---,0.00,VWS V13.01,2013-03-27 19:11:00,
2013-03-27 15:16:00,55.7,40.7,30.25,NW,313,1.0,10.0,57,0.00,,---,0.00,VWS V13.01,2013-03-27 19:16:00,
2013-03-27 15:21:00,55.7,41.2,30.25,NNW,348,3.0,10.0,58,0.00,,---,0.00,VWS V13.01,2013-03-27 19:21:00,
2013-03-27 15:26:00,56.3,40.8,30.25,North,5,14.0,14.0,56,0.00,,---,0.00,VWS V13.01,2013-03-27 19:26:00,
2013-03-27 15:32:00,56.1,41.1,30.24,NNW,327,4.0,6.0,57,0.00,,---,0.00,VWS V13.01,2013-03-27 19:32:00,
2013-03-27 15:37:00,55.9,40.9,30.24,WNW,282,6.0,11.0,57,0.00,,---,0.00,VWS V13.01,2013-03-27 19:37:00,
2013-03-27 15:42:00,55.5,41.0,30.24,North,360,4.0,11.0,58,0.00,,---,0.00,VWS V13.01,2013-03-27 19:42:00,
2013-03-27 15:47:00,55.8,41.3,30.24,North,349,4.0,11.0,58,0.00,,---,0.00,VWS V13.01,2013-03-27 19:47:00,
2013-03-27 15:52:00,55.6,41.1,30.24,North,360,11.0,11.0,58,0.00,,---,0.00,VWS V13.01,2013-03-27 19:52:00,
2013-03-27 15:57:00,55.0,41.0,30.24,North,355,4.0,12.0,59,0.00,,---,0.00,VWS V13.01,2013-03-27 19:57:00,
2013-03-27 16:02:00,55.1,41.0,30.24,WSW,256,1.0,11.0,59,0.00,,---,0.00,VWS V13.01,2013-03-27 20:02:00,
2013-03-27 16:07:00,55.4,40.9,30.24,North,355,9.0,12.0,58,0.00,,---,0.00,VWS V13.01,2013-03-27 20:07:00,
2013-03-27 16:12:00,55.4,41.3,30.24,West,273,2.0,12.0,59,0.00,,---,0.00,VWS V13.01,2013-03-27 20:12:00,
2013-03-27 16:17:00,55.9,41.3,30.24,NW,313,4.0,12.0,58,0.00,,---,0.00,VWS V13.01,2013-03-27 20:17:00,
2013-03-27 16:22:00,56.1,41.5,30.23,NW,318,3.0,12.0,58,0.00,,---,0.00,VWS V13.01,2013-03-27 20:22:00,
2013-03-27 16:27:00,56.3,42.2,30.23,NNE,13,11.0,12.0,59,0.00,,---,0.00,VWS V13.01,2013-03-27 20:27:00,
2013-03-27 16:32:00,55.3,40.8,30.23,West,275,3.0,6.0,58,0.00,,---,0.00,VWS V13.01,2013-03-27 20:32:00,
2013-03-27 16:38:00,55.8,42.1,30.23,NE,39,4.0,12.0,60,0.00,,---,0.00,VWS V13.01,2013-03-27 20:38:00,
2013-03-27 16:43:00,56.1,42.0,30.23,NNW,335,4.0,12.0,59,0.00,,---,0.00,VWS V13.01,2013-03-27 20:43:00,
2013-03-27 16:48:00,55.7,42.0,30.24,NW,308,2.0,12.0,60,0.00,,---,0.00,VWS V13.01,2013-03-27 20:48:00,
2013-03-27 16:53:00,55.9,42.2,30.24,NE,38,7.0,12.0,60,0.00,,---,0.00,VWS V13.01,2013-03-27 20:53:00,
2013-03-27 16:58:00,55.5,41.9,30.23,NNW,346,6.0,12.0,60,0.00,,---,0.00,VWS V13.01,2013-03-27 20:58:00,
2013-03-27 17:03:00,55.3,42.1,30.23,WSW,252,5.0,10.0,61,0.00,,---,0.00,VWS V13.01,2013-03-27 21:03:00,
2013-03-27 17:08:00,55.1,41.9,30.23,North,360,4.0,10.0,61,0.00,,---,0.00,VWS V13.01,2013-03-27 21:08:00,
2013-03-27 17:13:00,55.4,41.8,30.23,NW,326,2.0,10.0,60,0.00,,---,0.00,VWS V13.01,2013-03-27 21:13:00,
2013-03-27 17:18:00,55.3,41.7,30.23,NNE,28,5.0,12.0,60,0.00,,---,0.00,VWS V13.01,2013-03-27 21:18:00,
2013-03-27 17:23:00,55.2,41.6,30.23,WNW,294,6.0,15.0,60,0.00,,---,0.00,VWS V13.01,2013-03-27 21:23:00,
2013-03-27 17:28:00,55.2,42.0,30.23,NW,309,4.0,15.0,61,0.00,,---,0.00,VWS V13.01,2013-03-27 21:28:00,
2013-03-27 17:33:00,55.1,42.3,30.23,NW,307,6.0,12.0,62,0.00,,---,0.00,VWS V13.01,2013-03-27 21:33:00,
2013-03-27 17:38:00,55.3,42.5,30.23,NNW,345,0.0,12.0,62,0.00,,---,0.00,VWS V13.01,2013-03-27 21:38:00,
2013-03-27 17:44:00,55.4,41.8,30.23,WNW,303,1.0,13.0,60,0.00,,---,0.00,VWS V13.01,2013-03-27 21:44:00,
2013-03-27 17:49:00,54.9,42.1,30.23,North,355,2.0,13.0,62,0.00,,---,0.00,VWS V13.01,2013-03-27 21:49:00,
2013-03-27 17:54:00,54.8,42.5,30.23,West,276,5.0,13.0,63,0.00,,---,0.00,VWS V13.01,2013-03-27 21:54:00,
2013-03-27 17:59:00,54.0,41.3,30.23,NW,305,0.0,13.0,62,0.00,,---,0.00,VWS V13.01,2013-03-27 21:59:00,
2013-03-27 18:04:00,54.1,41.4,30.23,NW,326,2.0,13.0,62,0.00,,---,0.00,VWS V13.01,2013-03-27 22:04:00,
2013-03-27 18:09:00,54.6,42.3,30.23,NW,317,3.0,13.0,63,0.00,,---,0.00,VWS V13.01,2013-03-27 22:09:00,
2013-03-27 18:14:00,54.5,42.2,30.23,NW,310,0.0,13.0,63,0.00,,---,0.00,VWS V13.01,2013-03-27 22:14:00,
2013-03-27 18:19:00,54.6,42.7,30.23,North,5,6.0,13.0,64,0.00,,---,0.00,VWS V13.01,2013-03-27 22:19:00,
2013-03-27 18:24:00,54.6,42.7,30.23,North,355,4.0,13.0,64,0.00,,---,0.00,VWS V13.01,2013-03-27 22:24:00,
2013-03-27 18:29:00,55.0,42.7,30.23,WNW,290,4.0,4.0,63,0.00,,---,0.00,VWS V13.01,2013-03-27 22:29:00,
2013-03-27 18:34:00,54.8,42.5,30.23,NW,318,0.0,9.0,63,0.00,,---,0.00,VWS V13.01,2013-03-27 22:34:00,
2013-03-27 18:40:00,54.4,42.1,30.23,NW,311,1.0,12.0,63,0.00,,---,0.00,VWS V13.01,2013-03-27 22:40:00,
2013-03-27 18:45:00,54.4,42.9,30.23,NNW,336,0.0,12.0,65,0.00,,---,0.00,VWS V13.01,2013-03-27 22:45:00,
2013-03-27 18:50:00,54.1,41.4,30.23,NW,322,0.0,12.0,62,0.00,,---,0.00,VWS V13.01,2013-03-27 22:50:00,
2013-03-27 18:55:00,54.0,41.7,30.23,NNW,346,2.0,12.0,63,0.00,,---,0.00,VWS V13.01,2013-03-27 22:55:00,
2013-03-27 19:00:00,53.9,42.0,30.22,WNW,302,3.0,3.0,64,0.00,,---,0.00,VWS V13.01,2013-03-27 23:00:00,
2013-03-27 19:05:00,53.6,42.1,30.22,NNW,338,0.0,5.0,65,0.00,,---,0.00,VWS V13.01,2013-03-27 23:05:00,
2013-03-27 19:10:00,53.7,41.8,30.22,NNW,340,2.0,10.0,64,0.00,,---,0.00,VWS V13.01,2013-03-27 23:10:00,
2013-03-27 19:15:00,53.4,41.5,30.22,NNW,338,4.0,10.0,64,0.00,,---,0.00,VWS V13.01,2013-03-27 23:15:00,
2013-03-27 19:20:00,53.1,41.7,30.22,NNE,13,2.0,10.0,65,0.00,,---,0.00,VWS V13.01,2013-03-27 23:20:00,
2013-03-27 19:25:00,52.7,41.3,30.22,North,360,1.0,10.0,65,0.00,,---,0.00,VWS V13.01,2013-03-27 23:25:00,
2013-03-27 19:30:00,52.3,41.7,30.22,NW,313,0.0,0.0,67,0.00,,---,0.00,VWS V13.01,2013-03-27 23:30:00,
2013-03-27 19:35:00,52.0,41.8,30.22,NNW,348,1.0,7.0,68,0.00,,---,0.00,VWS V13.01,2013-03-27 23:35:00,
2013-03-27 19:40:00,51.8,41.6,30.22,NNE,25,0.0,7.0,68,0.00,,---,0.00,VWS V13.01,2013-03-27 23:40:00,
2013-03-27 19:45:00,51.6,41.8,30.22,NW,322,0.0,7.0,69,0.00,,---,0.00,VWS V13.01,2013-03-27 23:45:00,
2013-03-27 19:50:00,51.4,41.6,30.22,NNW,338,0.0,7.0,69,0.00,,---,0.00,VWS V13.01,2013-03-27 23:50:00,
2013-03-27 19:56:00,51.2,41.4,30.22,North,349,0.0,7.0,69,0.00,,---,0.00,VWS V13.01,2013-03-27 23:56:00,
2013-03-27 20:01:00,51.0,41.2,30.22,North,349,0.0,0.0,69,0.00,,---,0.00,VWS V13.01,2013-03-28 00:01:00,
2013-03-27 20:06:00,50.9,41.5,30.22,North,360,0.0,0.0,70,0.00,,---,0.00,VWS V13.01,2013-03-28 00:06:00,
2013-03-27 20:11:00,50.8,41.8,30.22,North,11,0.0,0.0,71,0.00,,---,0.00,VWS V13.01,2013-03-28 00:11:00,
2013-03-27 20:16:00,50.6,41.6,30.22,NNE,14,0.0,0.0,71,0.00,,---,0.00,VWS V13.01,2013-03-28 00:16:00,
2013-03-27 20:21:00,50.5,41.5,30.23,NNE,13,0.0,0.0,71,0.00,,---,0.00,VWS V13.01,2013-03-28 00:21:00,
2013-03-27 20:27:00,50.4,41.4,30.23,NNE,13,0.0,0.0,71,0.00,,---,0.00,VWS V13.01,2013-03-28 00:27:00,
2013-03-27 20:32:00,50.2,41.5,30.23,NNE,17,0.0,0.0,72,0.00,,---,0.00,VWS V13.01,2013-03-28 00:32:00,
2013-03-27 20:37:00,50.1,41.4,30.23,NNE,23,0.0,0.0,72,0.00,,---,0.00,VWS V13.01,2013-03-28 00:37:00,
2013-03-27 20:42:00,50.0,41.3,30.23,NNE,23,0.0,0.0,72,0.00,,---,0.00,VWS V13.01,2013-03-28 00:42:00,
2013-03-27 20:47:00,49.9,41.6,30.23,NNE,23,0.0,0.0,73,0.00,,---,0.00,VWS V13.01,2013-03-28 00:47:00,
2013-03-27 20:52:00,49.8,41.5,30.23,NNE,23,0.0,0.0,73,0.00,,---,0.00,VWS V13.01,2013-03-28 00:52:00,
2013-03-27 20:57:00,49.6,41.3,30.23,NNE,23,0.0,0.0,73,0.00,,---,0.00,VWS V13.01,2013-03-28 00:57:00,
2013-03-27 21:02:00,49.5,41.2,30.23,NNE,23,0.0,0.0,73,0.00,,---,0.00,VWS V13.01,2013-03-28 01:02:00,
2013-03-27 21:07:00,49.3,41.0,30.23,NNE,23,0.0,0.0,73,0.00,,---,0.00,VWS V13.01,2013-03-28 01:07:00,
2013-03-27 21:12:00,49.1,40.8,30.24,NNE,23,0.0,0.0,73,0.00,,---,0.00,VWS V13.01,2013-03-28 01:12:00,
2013-03-27 21:17:00,49.0,41.4,30.24,NNE,23,0.0,0.0,75,0.00,,---,0.00,VWS V13.01,2013-03-28 01:17:00,
2013-03-27 21:22:00,48.7,41.1,30.24,NNE,23,0.0,0.0,75,0.00,,---,0.00,VWS V13.01,2013-03-28 01:22:00,
2013-03-27 21:27:00,48.5,41.0,30.24,NNE,23,0.0,0.0,75,0.00,,---,0.00,VWS V13.01,2013-03-28 01:27:00,
2013-03-27 21:33:00,48.3,40.8,30.24,NNE,23,0.0,0.0,75,0.00,,---,0.00,VWS V13.01,2013-03-28 01:33:00,
2013-03-27 21:38:00,48.1,40.6,30.24,NNE,23,0.0,0.0,75,0.00,,---,0.00,VWS V13.01,2013-03-28 01:38:00,
2013-03-27 21:43:00,47.9,40.7,30.24,NNE,23,0.0,0.0,76,0.00,,---,0.00,VWS V13.01,2013-03-28 01:43:00,
2013-03-27 21:48:00,47.6,40.8,30.24,NNE,23,0.0,0.0,77,0.00,,---,0.00,VWS V13.01,2013-03-28 01:48:00,
2013-03-27 21:53:00,47.3,40.5,30.24,NNE,23,0.0,0.0,77,0.00,,---,0.00,VWS V13.01,2013-03-28 01:53:00,
2013-03-27 21:58:00,47.1,40.3,30.24,NNE,23,0.0,0.0,77,0.00,,---,0.00,VWS V13.01,2013-03-28 01:58:00,
2013-03-27 22:03:00,46.8,40.0,30.24,NNE,23,0.0,0.0,77,0.00,,---,0.00,VWS V13.01,2013-03-28 02:03:00,
2013-03-27 22:08:00,46.6,40.5,30.24,NNE,23,0.0,0.0,79,0.00,,---,0.00,VWS V13.01,2013-03-28 02:08:00,
2013-03-27 22:13:00,46.3,40.2,30.25,NNE,23,0.0,0.0,79,0.00,,---,0.00,VWS V13.01,2013-03-28 02:13:00,
2013-03-27 22:18:00,46.1,39.6,30.24,NNE,23,0.0,0.0,78,0.00,,---,0.00,VWS V13.01,2013-03-28 02:18:00,
2013-03-27 22:23:00,45.9,39.8,30.25,NNE,23,0.0,0.0,79,0.00,,---,0.00,VWS V13.01,2013-03-28 02:23:00,
2013-03-27 22:28:00,45.6,39.5,30.25,NNE,23,0.0,0.0,79,0.00,,---,0.00,VWS V13.01,2013-03-28 02:28:00,
2013-03-27 22:33:00,45.3,39.2,30.25,NNE,23,0.0,0.0,79,0.00,,---,0.00,VWS V13.01,2013-03-28 02:33:00,
2013-03-27 22:38:00,45.1,39.0,30.25,NNE,23,0.0,0.0,79,0.00,,---,0.00,VWS V13.01,2013-03-28 02:38:00,
2013-03-27 22:43:00,44.8,38.7,30.25,NNE,23,0.0,0.0,79,0.00,,---,0.00,VWS V13.01,2013-03-28 02:43:00,
2013-03-27 22:49:00,44.7,38.9,30.25,NNE,23,0.0,0.0,80,0.00,,---,0.00,VWS V13.01,2013-03-28 02:49:00,
2013-03-27 22:54:00,44.5,38.7,30.25,NNE,23,0.0,0.0,80,0.00,,---,0.00,VWS V13.01,2013-03-28 02:54:00,
2013-03-27 22:59:00,44.3,38.5,30.25,NNE,23,0.0,0.0,80,0.00,,---,0.00,VWS V13.01,2013-03-28 02:59:00,
2013-03-27 23:04:00,44.2,38.4,30.25,NNE,23,0.0,0.0,80,0.00,,---,0.00,VWS V13.01,2013-03-28 03:04:00,
2013-03-27 23:09:00,44.0,38.5,30.25,NNE,23,0.0,0.0,81,0.00,,---,0.00,VWS V13.01,2013-03-28 03:09:00,
2013-03-27 23:14:00,43.8,38.4,30.25,NNE,23,0.0,0.0,81,0.00,,---,0.00,VWS V13.01,2013-03-28 03:14:00,
2013-03-27 23:19:00,43.6,38.2,30.25,NNE,23,0.0,0.0,81,0.00,,---,0.00,VWS V13.01,2013-03-28 03:19:00,
2013-03-27 23:24:00,43.5,38.1,30.25,NNE,23,0.0,0.0,81,0.00,,---,0.00,VWS V13.01,2013-03-28 03:24:00,
2013-03-27 23:29:00,43.4,38.0,30.25,NNE,23,0.0,0.0,81,0.00,,---,0.00,VWS V13.01,2013-03-28 03:29:00,
2013-03-27 23:34:00,43.2,37.8,30.25,NNE,23,0.0,0.0,81,0.00,,---,0.00,VWS V13.01,2013-03-28 03:34:00,
2013-03-27 23:39:00,43.1,37.7,30.25,NNE,23,0.0,0.0,81,0.00,,---,0.00,VWS V13.01,2013-03-28 03:39:00,
2013-03-27 23:44:00,42.9,37.8,30.24,NNE,23,0.0,0.0,82,0.00,,---,0.00,VWS V13.01,2013-03-28 03:44:00,
2013-03-27 23:49:00,42.9,37.8,30.24,NNE,23,0.0,0.0,82,0.00,,---,0.00,VWS V13.01,2013-03-28 03:49:00,
2013-03-27 23:54:00,42.7,37.6,30.24,NNE,23,0.0,0.0,82,0.00,,---,0.00,VWS V13.01,2013-03-28 03:54:00,
2013-03-27 23:59:00,42.8,37.7,30.24,NNE,23,0.0,0.0,82,0.00,,---,0.00,VWS V13.01,2013-03-28 03:59:00,